Regional Weather Roundup
Issued by NWS

Home | Current Version | Previous Version | Text Only | Print | Product List | Glossary Off
Versions: 1 2 3 4 5 6 7 8 9 10 11 12 13 14 15 16 17 18 19 20 21 22 23 24 25 26 27 28 29 30 31 32 33 34 35 36 37 38 39 40 41 42 43 44 45 46 47 48 49 50

000
ASUS43 KMPX 220101
RWRMN
WEATHER ROUNDUP FOR MINNESOTA
NATIONAL WEATHER SERVICE TWIN CITIES/CHANHASSEN MN
800 PM CDT WED JUN 21 2017


NOTE: "FAIR" INDICATES FEW OR NO CLOUDS BELOW 12,000 FEET WITH NO
SIGNIFICANT WEATHER AND/OR OBSTRUCTIONS TO VISIBILITY. N/A MEANS
CURRENT SKY AND/OR WEATHER CONDITIONS ARE NOT AVAILABLE.

MNZ060>063-068>070-220200-
   Twin Cities Metro

CITY           SKY/WX    TMP DP  RH WIND       PRES   REMARKS
TWIN CITIES    PTCLDY    78  60  53 S14       29.72F
ST PAUL        CLEAR     76  61  59 SE15      29.73F
CRYSTAL        CLEAR     77  58  51 SE13      29.70F
BLAINE         PTCLDY    79  61  53 SE8       29.72F
LAKEVILLE      CLEAR     75  63  64 S9G18     29.74F
EDEN PRAIRIE   CLEAR     77  61  57 S13       29.71F
SOUTH ST PAUL  CLEAR     77  59  54 S10G16    29.73F
LAKE ELMO      FAIR      75  61  60 SE9G16    29.75F
$$
MNZ001>005-007-008-013>017-022>024-027-028-220200-
   Northwest Minnesota

CITY           SKY/WX    TMP DP  RH WIND       PRES   REMARKS
BEMIDJI        CLOUDY    68  61  78 SW7       29.66R
HALLOCK        SUNNY     73  59  60 NW16      29.59R
ROSEAU         SUNNY     70  61  73 SE10G16   29.58F
WARROAD        SUNNY     70  61  73 SE13      29.60F
THIEF RVR FALL MOSUNNY   72  64  78 VRB3      29.61S
CROOKSTON      SUNNY     79  61  53 NW15      29.60R
FOSSTON        CLOUDY    66  63  88 SE5G16    29.62S
DETROIT LAKES  CLOUDY    75  63  64 S15       29.64R
MOORHEAD       SUNNY     79  63  57 S7        29.61S
PARK RAPIDS    PTSUNNY   78  57  48 S13       29.64F
MAHNOMEN       MOCLDY    68  65  89 S3        29.61F
$$
MNZ006-009>011-018-025>026-220200-
   North Central Minnesota

CITY           SKY/WX    TMP DP  RH WIND       PRES   REMARKS
BAUDETTE       MOSUNNY   66  60  81 SE7       29.63F
FLAG ISLAND    PTSUNNY   61  54  77 E10G16    29.60F
INTL FALLS     CLOUDY    63  56  78 SE9       29.67F
WASKISH        LGT RAIN  64  59  82 CALM      29.67R
BIG FORK       CLOUDY    66  55  68 SE5       29.68F
LONGVILLE      MOSUNNY   73  55  53 SE7       29.67F
GRAND RAPIDS   CLOUDY    70  56  61 SE8       29.71F
CRANE LAKE     CLOUDY    64  55  72 CALM      29.73F
ORR            CLOUDY    64  52  63 SE5       29.70S
COOK           CLOUDY    64  54  68 CALM      29.73S
WALKER         LGT RAIN  73  57  57 SE10      29.64F
$$
MNZ012-019>021-037-220200-
   Northeast Minnesota

CITY           SKY/WX    TMP DP  RH WIND       PRES   REMARKS
DULUTH         PTCLDY    60  48  64 E14       29.75F
ELY            RAIN      63  52  67 SE10      29.75S
HIBBING        MOCLDY    65  56  72 SE8       29.71F
EVELETH        CLOUDY    65  43  45 SE7       29.73F
DULUTH HARBOR  PTCLDY    57  52  82 N12       29.75F
TWO HARBORS    CLOUDY    63  52  67 E8        29.75S
SILVER BAY     CLOUDY    57  50  77 E8        29.77R
GRAND MARAIS     N/A     49  45  86 NE5       29.78F
G MARAIS ARPRT CLOUDY    57  41  54 E3        29.80F
$$
MNZ029>031-032-039>041-046>048-054>057-064-220200-
   West Central Minnesota

CITY           SKY/WX    TMP DP  RH WIND       PRES   REMARKS
FERGUS FALLS   TSTM      66  66 100 SE10      29.61F
WHEATON        CLOUDY    81  64  57 SE6       29.62S
MORRIS         CLOUDY    82  63  51 S9        29.62F
ALEXANDRIA     SUNNY     77  61  57 S15       29.67F
ELBOW LAKE     FAIR      78  64  61 S3        29.65R
WADENA         CLOUDY    73  63  68 S14       29.64F
GLENWOOD       SUNNY     77  63  61 S12G18    29.67F
APPLETON       SUNNY     82  63  51 S8        29.62F
BENSON         SUNNY     79  63  57 S9        29.65F
ORTONVILLE     SUNNY     81  64  57 S6        29.62F
MADISON        SUNNY     84  64  51 S10       29.63F
WILLMAR        FAIR      81  64  57 S13       29.68F
$$
MNZ033>034-036-042>043-049>051-058-059-220200-
   Central Minnesota

CITY           SKY/WX    TMP DP  RH WIND       PRES   REMARKS
ST CLOUD       CLEAR     77  61  57 S13       29.70F
SAUK CENTRE    FAIR      78  62  57 SE14      29.68S
PAYNESVILLE    CLEAR     76  58  53 S12       29.69F
AITKIN         CLOUDY    72  57  60 SE5       29.67F
PINE RIVER     CLOUDY    75  59  57 S8        29.72R
BRAINERD       PTSUNNY   73  56  54 S6        29.70S
STAPLES        LGT RAIN  73  59  60 S9        29.70R
LONG PRAIRIE   FAIR      75  59  57 SE7       29.69R
LITTLE FALLS   CLEAR     75  57  53 S13       29.68F
BUFFALO        CLEAR     76  60  56 SE9       29.72F
MAPLE LAKE     CLEAR     78  64  61 S5        29.71F
HUTCHINSON     CLEAR     78  65  64 SE7       29.72F
$$
MNZ037-044-045-052-053-220200-
   East Central Minnesota

CITY           SKY/WX    TMP DP  RH WIND       PRES   REMARKS
PRINCETON      CLEAR     79  61  53 S9        29.71F
MORA           CLEAR     75  54  46 SE7       29.73F
CAMBRIDGE      CLEAR     79  61  53 SE9       29.70F
RUSH CITY      CLEAR     75  55  50 S10       29.73F
MOOSE LAKE     CLOUDY    72  54  53 S5        29.70F
HINCKLEY       FAIR      73  55  53 SE7       29.72F
CLOQUET        CLEAR     63  45  51 E5        29.75S
MCGREGOR       CLOUDY    72  55  56 SE7       29.71F
$$
MNZ071>073-080-081-089-090-097-098-220200-
   Southwest Minnesota

CITY           SKY/WX    TMP DP  RH WIND       PRES   REMARKS
MONTEVIDEO     SUNNY     82  64  54 S7        29.64F
GRANITE FALLS  SUNNY     83  67  57 SE13      29.67F
CANBY          SUNNY     84  65  53 CALM      29.65F
MARSHALL       SUNNY     83  67  58 S9        29.66F
REDWOOD FALLS  CLEAR     80  65  59 SE12      29.68F
OLIVIA         CLEAR     77  63  61 S13       29.68F
PIPESTONE      SUNNY     84  66  54 S9        29.70S
WINDOM         CLEAR     79  66  65 SE8       29.71F
WORTHINGTON    CLEAR     80  71  74 E10       29.71F
JACKSON        CLEAR     77  68  73 SE9       29.73F
TRACY          SUNNY     82  69  64 S7        29.69F
SLAYTON        MOSUNNY   82  59  46 SE10      29.71F HAZE
$$
MNZ065>067-074>077-082>085-091>093-220200-
   South Central Minnesota

CITY           SKY/WX    TMP DP  RH WIND       PRES   REMARKS
MANKATO        CLOUDY    75  64  68 SE13      29.73F
NEW ULM        CLEAR     77  64  65 S13       29.71F
ST JAMES       PTCLDY    79  66  65 SE9       29.73F HAZE
FAIRMONT       CLEAR     75  68  78 SE9       29.73F
GLENCOE        CLEAR     78  65  65 SE10      29.71F
FARIBAULT      CLEAR     75  63  64 SE9       29.76F
OWATONNA       CLEAR     75  63  64 SE10      29.77S
WASECA         CLEAR     73  63  68 SE12      29.77S
ALBERT LEA     CLOUDY    73  63  68 SE9       29.76F
$$
MNZ078>079-086>088-094>096-220200-
   Southeast Minnesota

CITY           SKY/WX    TMP DP  RH WIND       PRES   REMARKS
ROCHESTER      PTCLDY    71  61  70 S14       29.80S
RED WING       CLEAR     75  55  50 S6        29.76S
STANTON        CLEAR     76  61  59 S9G17     29.74F
DODGE CENTER   CLOUDY    73  61  64 SE12      29.79S
WINONA         MOCLDY    73  59  60 CALM      29.80S
AUSTIN         PTCLDY    72  61  68 SE9       29.78F
PRESTON        CLEAR     70  59  69 SE10      29.82S
$$
ABBREVIATIONS USED IN REMARKS
   TC - TEMPERATURES IN CELSIUS
  WCI - WIND CHILL INDEX
   HX - HEAT INDEX
  VSB - VISIBILITY
$$




USA.gov is the U.S. government's official web portal to all federal, state and local government web resources and services.